{"data":{"norad_id":59541,"intl_designator":"2024-074H","name":"STARLINK-31481","alt_names":[],"object_type":"PAYLOAD","status":"ACTIVE","operator":null,"country":"US","launch_date":"2024-04-18","launch_site_code":"AFETR","launch_vehicle":null,"mission":null,"orbit_class":"UNKNOWN","rcs_meters":null,"size_class":null,"mass_kg":null,"dimensions":null,"purposes":["comms"],"wikipedia_slug":null,"has_3d_model":false,"image_url":null,"decayed_at":null,"tle_current":{"epoch":"2026-05-24T18:16:04.027872Z","epoch_age_seconds":105858,"freshness":"FRESH","line1":"1 59541U 24074H   26144.76115773 -.00000229  00000+0  12046-5 0  9996","line2":"2 59541  43.0019 273.4711 0001625 265.5126  94.5540 15.27574024117653","mean_motion":15.27574024,"eccentricity":0.0001625,"inclination_deg":43.0019,"raan_deg":273.4711,"arg_perigee_deg":265.5126,"mean_anomaly_deg":94.554,"bstar":1.2046e-6,"rev_number":11765,"period_min":94.267117493221,"perigee_km":481.95204474341,"apogee_km":484.18193604028,"semimajor_km":6861.2039903918,"source":"CELESTRAK","updated_at":"2026-05-25T13:38:18.979944Z"}}}